Showing default

KORSAT-1, 59452

Orbit data source: Space-Track

KORSAT-1, 59452 is a payload satellite owned by DAPA (KR) in LEO that was launched on Sun, 07 Apr 2024 UTC via an FALCON 9 launch vehicle from the Air Force Eastern Test Range (AFETR). Payload-class satellites include a variety of spacecraft equipped with specific instruments for various scientific and technological missions. These include communications satellites like Starlink; space stations such as the ISS; scientific satellites like the Hubble; Earth observation satellites from companies like Planet Labs, Umbra, and HawkEye 360; GPS; miniature CubeSats for education and research; and military/defense satellites.

Loading next visibility...
Identifier
59452, 2024-066L
Orbit
LEO
Country
Flag of UnknownUnknown / SKOR
Related business
Manufacturer
KAI
Mission
Operational Defense Radar Imaging
Bus & Motor
CAS500?, Unknown motor
Mass
~800 kg wet, ~750 kg dry
Launch date (UTC)
2024-04-07 (2 years ago)
Launch vehicle
FALCON 9
Launch site
Air Force Eastern Test Range (AFETR)
Object type
Payload
Rocket body
Debris
Shape & HBR
Hex Box + 3 Pan, 3.0 m
Radar Cross Section
10.467 m², Large (>1 m²)

Expand to show TLE details & history
Last TLE update: 7 hours ago

TLE from 7 hours ago
0 KORSAT-1
1 59452U 24066L   26037.27369868  .00006887  00000-0  57137-3 0  9995
2 59452  45.4094 203.0757 0009100  34.7824 325.3648 14.99444710100415
Epoch: 2026-02-06T06:34Z
TLE epoch observation values (Epoch: 2026-02-06T06:34:07.565Z)
Latitude
-0.00003°
Longitude
-31.86978°
Altitude
563.456 km
Speed
7.584 km/s
True Right ascension
13h 32m 18s
True Declination
0° 00' 00"
Sunlit
Object was in full shadow at epoch
Visualization orbit readout
Latitude
Unknown
Longitude
Unknown
Altitude
Unknown
Speed
Unknown
Apparent Right ascension
Unknown
Apparent Declination
Unknown
Sunlit
N/A
Visualization observer readout
Local Sidereal Time
16:07:43
Azimuth
Unknown
Elevation
Unknown
Doppler factor
Unknown
Orbital elements
Apogee altitude
576.455 km
Perigee altitude
563.809 km
Semi-major axis
6,948.269 km
Eccentricity
0.00091
Inclination
45.4094°
RAAN
203.0757°
Arg. of periapsis
34.7824°
True anomaly
325.30548°
Mean anomaly
325.3648°
Eccentric anomaly
325.33514°
Mean motion
3.74738 °/min
Orbital period
96.07 mins
BSTAR
0.00057137
Loading maneuver chart data...
Computing Atmospheric mass density...
Loading historical data...
Loading historical data...
Loading historical data...
Loading historical data...
Loading historical data...
Loading historical data...
Loading historical data...

Documentation

Showing up to 5 results
|